UAL27 KIAH-EDDF

Flight info

Callsign UAL27
Flight time N/A
Altitude 37000
Route INDIE8 TPAKK DCT LIT DCT KI51O DCT KC69U DCT SAEZE DCT CBIRD DCT MIILS N691A NEEKO/M083F390 NATV NETKI/N0481F410 DCT BOFUM Q37 MALUD UL975 WAL M16 DOLAS DCT NAVPI DCT SOGPO DCT DIXAT DIXAT1B
Aircraft B772/H-SDE2E3FGHIJ5LORVWXY/LB1D1

Departure

Time 2026-05-06 23:19
Airport George Bush Intercontinental Airport (KIAH)

Arrival

Time N/A
Airport Frankfurt Main Airport (EDDF)
Time Latitude Longitude Altitude Speed Heading
2026-05-06 22:47 29.98382 -95.33467 110 ft 0 kts 325°
2026-05-06 23:06 29.98380 -95.33466 111 ft 2 kts 325°
2026-05-06 23:06 29.98357 -95.33452 102 ft 4 kts 346°
2026-05-06 23:07 29.98334 -95.33445 109 ft 2 kts 338°
2026-05-06 23:07 29.98313 -95.33431 110 ft 4 kts 310°
2026-05-06 23:07 29.98301 -95.33405 108 ft 4 kts 276°
2026-05-06 23:07 29.98301 -95.33387 107 ft 1 kts 270°
2026-05-06 23:08 29.98301 -95.33385 107 ft 0 kts 270°
2026-05-06 23:11 29.98300 -95.33439 109 ft 14 kts 270°
2026-05-06 23:11 29.98304 -95.33555 111 ft 14 kts 275°
2026-05-06 23:11 29.98312 -95.33671 110 ft 14 kts 274°
2026-05-06 23:11 29.98320 -95.33786 109 ft 14 kts 274°
2026-05-06 23:12 29.98317 -95.33900 109 ft 14 kts 264°
2026-05-06 23:12 29.98310 -95.34014 110 ft 14 kts 252°
2026-05-06 23:12 29.98301 -95.34129 109 ft 14 kts 270°
2026-05-06 23:12 29.98303 -95.34243 110 ft 14 kts 272°
2026-05-06 23:13 29.98301 -95.34358 110 ft 14 kts 261°
2026-05-06 23:13 29.98265 -95.34465 109 ft 14 kts 251°
2026-05-06 23:13 29.98257 -95.34580 109 ft 14 kts 269°
2026-05-06 23:13 29.98256 -95.34696 109 ft 14 kts 270°
2026-05-06 23:14 29.98256 -95.34812 109 ft 14 kts 270°
2026-05-06 23:14 29.98257 -95.34928 109 ft 14 kts 270°
2026-05-06 23:14 29.98255 -95.35042 108 ft 14 kts 263°
2026-05-06 23:14 29.98218 -95.35149 109 ft 14 kts 243°
2026-05-06 23:15 29.98233 -95.35227 110 ft 11 kts 321°
2026-05-06 23:15 29.98296 -95.35271 108 ft 11 kts 331°
2026-05-06 23:15 29.98382 -95.35324 108 ft 15 kts 333°
2026-05-06 23:15 29.98473 -95.35380 110 ft 15 kts 332°
2026-05-06 23:16 29.98565 -95.35435 110 ft 15 kts 332°
2026-05-06 23:16 29.98656 -95.35491 110 ft 15 kts 332°
2026-05-06 23:16 29.98747 -95.35547 109 ft 15 kts 332°
2026-05-06 23:16 29.98829 -95.35612 109 ft 15 kts 300°
2026-05-06 23:17 29.98809 -95.35717 110 ft 8 kts 240°
2026-05-06 23:17 29.98767 -95.35759 109 ft 8 kts 190°
2026-05-06 23:17 29.98734 -95.35750 110 ft 0 kts 157°
2026-05-06 23:17 29.98714 -95.35739 112 ft 14 kts 154°
2026-05-06 23:18 29.98435 -95.35569 109 ft 78 kts 152°
2026-05-06 23:18 29.97771 -95.35163 111 ft 136 kts 152°
2026-05-06 23:18 29.96790 -95.34552 174 ft 179 kts 152°
2026-05-06 23:18 29.95662 -95.33839 666 ft 193 kts 153°
2026-05-06 23:19 29.94544 -95.32874 975 ft 222 kts 126°
2026-05-06 23:19 29.94148 -95.31120 1578 ft 234 kts 84°
2026-05-06 23:19 29.94668 -95.29288 2075 ft 251 kts 59°
2026-05-06 23:19 29.95857 -95.27749 2317 ft 264 kts 36°
2026-05-06 23:20 29.97511 -95.26802 2722 ft 269 kts 11°
2026-05-06 23:20 29.99372 -95.26501 3166 ft 274 kts
2026-05-06 23:20 30.01278 -95.26278 3752 ft 275 kts
2026-05-06 23:20 30.03190 -95.26045 4308 ft 279 kts
2026-05-06 23:21 30.05125 -95.25795 4870 ft 281 kts
2026-05-06 23:21 30.07079 -95.25531 5428 ft 284 kts
2026-05-06 23:21 30.09023 -95.25258 6011 ft 287 kts
2026-05-06 23:21 30.11009 -95.24964 6709 ft 288 kts
2026-05-06 23:22 30.13018 -95.24681 7315 ft 293 kts
2026-05-06 23:22 30.15054 -95.24385 7899 ft 299 kts
2026-05-06 23:22 30.17126 -95.24068 8531 ft 299 kts
2026-05-06 23:22 30.19191 -95.23756 9147 ft 301 kts
2026-05-06 23:23 30.21289 -95.23440 9637 ft 307 kts
2026-05-06 23:23 30.23423 -95.23117 10077 ft 314 kts
2026-05-06 23:23 30.25622 -95.22788 10222 ft 332 kts
2026-05-06 23:23 30.27975 -95.22431 10363 ft 352 kts
2026-05-06 23:24 30.30443 -95.21814 10510 ft 374 kts 13°
2026-05-06 23:24 30.32967 -95.20824 10769 ft 390 kts 16°